Spokane Fairchild, WA

4:37 PM PDT on August 19, 2017 (GMT -0700)
Fairchild Air Force Base

Weather History for KSKA - June, 2013

Change the Weather History Date:

Friday, June 21, 2013

  Actual Average Record
Temperature  
Mean Temperature 52 °F -  
Max Temperature 60 °F 72 °F 91 °F (2005)
Min Temperature 46 °F 49 °F 42 °F (2003)
Degree Days  
Heating Degree Days 12    
Growing Degree Days 2 (Base 50)    
Moisture  
Dew Point 47 °F    
Average Humidity 91    
Maximum Humidity 100    
Minimum Humidity 62    
Precipitation  
Precipitation 0.05 in - - ()
Sea Level Pressure  
Sea Level Pressure 30.08 in    
Wind  
Wind Speed 6 mph (South)    
Max Wind Speed 10 mph    
Max Gust Speed -    
Visibility 9 miles    
Events Rain    
Averages and records for this station are not official NWS values.
T = Trace of Precipitation, MM = Missing Value Source: NWS Daily Summary

Daily Weather History Graph

Daily Weather History Graph

Search for Another Location

Airport or City:

Trip Planner

Search our weather history database for the weather conditions in past years. The results will help you decide how hot, cold, wet, or windy it might be!

Date:

Astronomy

Jun. 21, 2013 Rise Set
Actual Time 4:52 AM PDT 8:52 PM PDT
Civil Twilight 4:12 AM PDT 9:32 PM PDT
Nautical Twilight 3:15 AM PDT 10:29 PM PDT
Astronomical Twilight 1:44 AM PDT 12:00 AM PDT
Moon 7:02 PM PDT (6/21) 3:19 AM PDT (6/21)
Length of Visible Light 17h 20m
Length of Day
15h 59m
Waxing Gibbous, 96% of the Moon is Illuminated
Jun 21
Waxing Gibbous
Jun 23
Full
Jun 29
Last Quarter
Jul 8
New
Jul 15
First Quarter

Hourly Weather History & Observations

Time (PDT) Temp. Windchill Dew Point Humidity Pressure Visibility Wind Dir Wind Speed Gust Speed Precip Events Conditions
12:58 AM 47.7 °F - 46.9 °F 97% 30.08 in 10.0 mi South 5.8 mph - N/A   Overcast
1:00 AM 48.2 °F - 46.4 °F 93% 30.05 in 10.0 mi South 6.9 mph - N/A   Overcast
1:18 AM 48.2 °F - 46.4 °F 93% 30.05 in 10.0 mi South 6.9 mph - N/A   Overcast
1:29 AM 48.2 °F - 46.4 °F 93% 30.04 in 10.0 mi South 5.8 mph - N/A   Overcast
1:51 AM 48.2 °F - 46.4 °F 93% 30.05 in 10.0 mi South 6.9 mph - N/A   Overcast
1:55 AM 48.2 °F - 46.4 °F 93% 30.05 in 10.0 mi South 8.1 mph - N/A   Light Drizzle
1:58 AM 47.5 °F - 46.8 °F 97% 30.08 in 9.0 mi South 6.9 mph - 0.00 in   Light Drizzle
1:59 AM 48.2 °F - 46.4 °F 93% 30.05 in 9.0 mi South 5.8 mph - N/A   Light Drizzle
2:00 AM 48.2 °F - 46.4 °F 93% 30.05 in 8.0 mi South 5.8 mph - N/A   Light Drizzle
2:09 AM 48.2 °F - 46.4 °F 93% 30.05 in 5.0 mi South 5.8 mph - N/A Rain Light Rain
2:12 AM 48.2 °F - 46.4 °F 93% 30.05 in 7.0 mi South 5.8 mph - N/A Rain Light Rain
2:15 AM 48.2 °F - 46.4 °F 93% 30.05 in 10.0 mi South 5.8 mph - N/A Rain Light Rain
2:24 AM 48.2 °F - 46.4 °F 93% 30.05 in 10.0 mi South 5.8 mph - N/A Rain Light Rain
2:26 AM 48.2 °F - 46.4 °F 93% 30.05 in 10.0 mi South 4.6 mph - N/A Rain Light Rain
2:30 AM 48.2 °F - 46.4 °F 93% 30.05 in 9.0 mi South 6.9 mph - N/A Rain Light Rain
2:31 AM 48.2 °F - 46.4 °F 93% 30.05 in 8.0 mi South 6.9 mph - N/A Rain Light Rain
2:35 AM 46.4 °F 43.5 °F 46.4 °F 100% 30.05 in 7.0 mi South 5.8 mph - N/A Rain Light Rain
2:36 AM 46.4 °F 43.5 °F 46.4 °F 100% 30.05 in 7.0 mi South 5.8 mph - N/A Rain Light Rain
2:45 AM 46.4 °F 43.5 °F 46.4 °F 100% 30.05 in 10.0 mi South 5.8 mph - N/A Rain Light Rain
2:53 AM 46.4 °F 44.3 °F 46.4 °F 100% 30.05 in 10.0 mi South 4.6 mph - N/A   Overcast
2:58 AM 47.1 °F - 46.9 °F 99% 30.08 in 10.0 mi South 5.8 mph - 0.02 in   Overcast
3:04 AM 46.4 °F 45.2 °F 46.4 °F 100% 30.05 in 10.0 mi South 3.5 mph - N/A Rain Light Rain
3:06 AM 48.2 °F - 46.4 °F 93% 30.05 in 9.0 mi South 5.8 mph - N/A Rain Light Rain
3:11 AM 46.4 °F 43.5 °F 46.4 °F 100% 30.05 in 10.0 mi South 5.8 mph - N/A Rain Light Rain
3:16 AM 46.4 °F 44.3 °F 46.4 °F 100% 30.05 in 9.0 mi South 4.6 mph - N/A Rain Light Rain
3:22 AM 46.4 °F 42.9 °F 46.4 °F 100% 30.05 in 8.0 mi SSW 6.9 mph - N/A Rain Light Rain
3:27 AM 46.4 °F 43.5 °F 46.4 °F 100% 30.05 in 7.0 mi SSW 5.8 mph - N/A   Overcast
3:34 AM 46.4 °F 43.5 °F 46.4 °F 100% 30.05 in 9.0 mi SSW 5.8 mph - N/A   Light Drizzle
3:35 AM 46.4 °F 44.3 °F 46.4 °F 100% 30.05 in 9.0 mi SSW 4.6 mph - N/A   Light Drizzle
3:36 AM 46.4 °F 44.3 °F 46.4 °F 100% 30.05 in 9.0 mi SSW 4.6 mph - N/A   Light Drizzle
3:43 AM 46.4 °F 43.5 °F 46.4 °F 100% 30.05 in 10.0 mi SSW 5.8 mph - N/A Rain Light Rain
3:54 AM 46.4 °F - 46.4 °F 100% 30.05 in 9.0 mi SSW 2.3 mph - N/A   Light Drizzle
3:56 AM 46.4 °F - 46.4 °F 100% 30.05 in 7.0 mi SSW 2.3 mph - N/A   Light Drizzle
3:58 AM 46.4 °F - 46.4 °F 100% 30.08 in 7.0 mi South 2.3 mph - 0.01 in   Light Drizzle
4:03 AM 46.4 °F 45.2 °F 46.4 °F 100% 30.05 in 5.0 mi South 3.5 mph - N/A   Light Drizzle
4:12 AM 46.4 °F 42.9 °F 46.4 °F 100% 30.05 in 5.0 mi South 6.9 mph - N/A   Light Drizzle
4:13 AM 46.4 °F 42.9 °F 46.4 °F 100% 30.05 in 5.0 mi South 6.9 mph - N/A   Light Drizzle
4:14 AM 46.4 °F 42.9 °F 46.4 °F 100% 30.05 in 6.0 mi South 6.9 mph - N/A   Overcast
4:28 AM 46.4 °F 43.5 °F 46.4 °F 100% 30.05 in 9.0 mi South 5.8 mph - N/A   Overcast
4:33 AM 46.4 °F 43.5 °F 46.4 °F 100% 30.06 in 10.0 mi SSW 5.8 mph - N/A   Overcast
4:45 AM 46.4 °F 43.5 °F 46.4 °F 100% 30.05 in 10.0 mi SSW 5.8 mph - N/A   Overcast
4:46 AM 46.4 °F 43.5 °F 46.4 °F 100% 30.05 in 10.0 mi SSW 5.8 mph - N/A   Overcast
4:53 AM 46.4 °F 44.3 °F 46.4 °F 100% 30.06 in 10.0 mi SW 4.6 mph - N/A   Overcast
4:58 AM 46.9 °F - 46.8 °F 99% 30.09 in 10.0 mi SW 3.5 mph - 0.01 in   Overcast
5:02 AM 46.4 °F 44.3 °F 46.4 °F 100% 30.06 in 10.0 mi SW 4.6 mph - N/A   Overcast
5:03 AM 46.4 °F 45.2 °F 46.4 °F 100% 30.06 in 10.0 mi SW 3.5 mph - N/A   Light Drizzle
5:11 AM 46.4 °F 45.2 °F 46.4 °F 100% 30.06 in 10.0 mi SW 3.5 mph - N/A   Light Drizzle
5:16 AM 46.4 °F - 46.4 °F 100% 30.06 in 10.0 mi SW 2.3 mph - N/A   Overcast
5:17 AM 46.4 °F - 46.4 °F 100% 30.06 in 10.0 mi SSW 2.3 mph - N/A   Overcast
5:48 AM 46.4 °F - 46.4 °F 100% 30.06 in 10.0 mi South 1.2 mph - N/A   Overcast
5:58 AM 47.3 °F - 46.9 °F 99% 30.10 in 10.0 mi South 2.3 mph - 0.00 in   Overcast
6:09 AM 48.2 °F - 46.4 °F 93% 30.07 in 10.0 mi SSE 2.3 mph - N/A   Light Drizzle
6:23 AM 46.4 °F - 46.4 °F 100% 30.07 in 10.0 mi SE 2.3 mph - N/A Rain Light Rain
6:30 AM 46.4 °F 45.2 °F 46.4 °F 100% 30.08 in 10.0 mi SE 3.5 mph - N/A   Light Drizzle
6:41 AM 46.4 °F - 46.4 °F 100% 30.08 in 10.0 mi South 2.3 mph - N/A   Light Drizzle
6:42 AM 46.4 °F 45.2 °F 46.4 °F 100% 30.08 in 10.0 mi SSE 3.5 mph - N/A   Light Drizzle
6:49 AM 46.4 °F 45.2 °F 46.4 °F 100% 30.08 in 10.0 mi South 3.5 mph - N/A   Light Drizzle
6:54 AM 46.4 °F 45.2 °F 46.4 °F 100% 30.08 in 10.0 mi South 3.5 mph - N/A   Overcast
6:58 AM 47.1 °F - 46.9 °F 99% 30.11 in 10.0 mi SW 3.5 mph - 0.01 in   Overcast
7:02 AM 46.4 °F - 46.4 °F 100% 30.08 in 10.0 mi SW 2.3 mph - N/A   Overcast
7:13 AM 48.2 °F - 46.4 °F 93% 30.08 in 10.0 mi SE 2.3 mph - N/A   Overcast
7:26 AM 48.2 °F - 46.4 °F 93% 30.09 in 7.0 mi Calm Calm - N/A   Overcast
7:39 AM 48.2 °F - 46.4 °F 93% 30.09 in 10.0 mi West 2.3 mph - N/A   Overcast
7:58 AM 48.9 °F - 47.3 °F 94% 30.12 in 10.0 mi Calm Calm - N/A   Overcast
7:59 AM 48.2 °F - 46.4 °F 93% 30.09 in 10.0 mi Calm Calm - N/A   Overcast
8:03 AM 48.2 °F - 46.4 °F 93% 30.09 in 10.0 mi ENE 1.2 mph - N/A Rain Light Rain
8:14 AM 48.2 °F - 46.4 °F 93% 30.10 in 10.0 mi SE 4.6 mph - N/A   Overcast
8:22 AM 48.2 °F - 48.2 °F 100% 30.09 in 10.0 mi SSE 4.6 mph - N/A   Overcast
8:23 AM 48.2 °F - 48.2 °F 100% 30.09 in 10.0 mi SE 5.8 mph - N/A   Overcast
8:58 AM 50.0 °F - 46.9 °F 89% 30.12 in 10.0 mi SE 3.5 mph - 0.00 in   Overcast
9:01 AM 50.0 °F - 48.2 °F 94% 30.10 in 10.0 mi ESE 5.8 mph - N/A   Overcast
9:02 AM 50.0 °F - 46.4 °F 87% 30.10 in 10.0 mi ESE 9.2 mph - N/A   Overcast
9:10 AM 50.0 °F - 48.2 °F 94% 30.10 in 10.0 mi SE 5.8 mph - N/A   Overcast
9:15 AM 50.0 °F - 48.2 °F 94% 30.10 in 8.0 mi ESE 4.6 mph - N/A   Overcast
9:19 AM 51.8 °F - 48.2 °F 88% 30.10 in 8.0 mi SE 8.1 mph - N/A   Overcast
9:22 AM 51.8 °F - 48.2 °F 88% 30.10 in 9.0 mi ESE 5.8 mph - N/A   Overcast
9:23 AM 51.8 °F - 48.2 °F 88% 30.10 in 10.0 mi SE 8.1 mph - N/A   Overcast
9:31 AM 53.6 °F - 48.2 °F 82% 30.10 in 10.0 mi East 6.9 mph - N/A   Overcast
9:33 AM 53.6 °F - 48.2 °F 82% 30.10 in 10.0 mi ESE 10.4 mph - N/A   Overcast
9:36 AM 53.6 °F - 48.2 °F 82% 30.10 in 10.0 mi ESE 6.9 mph - N/A   Overcast
9:41 AM 53.6 °F - 48.2 °F 82% 30.10 in 10.0 mi SE 9.2 mph - N/A   Mostly Cloudy
9:42 AM 53.6 °F - 48.2 °F 82% 30.10 in 10.0 mi SE 9.2 mph - N/A   Mostly Cloudy
9:51 AM 51.8 °F - 48.2 °F 88% 30.10 in 10.0 mi SE 8.1 mph - N/A   Mostly Cloudy
9:55 AM 51.8 °F - 48.2 °F 88% 30.10 in 10.0 mi SE 8.1 mph - N/A   Light Drizzle
9:58 AM 52.0 °F - 47.8 °F 86% 30.12 in 10.0 mi SE 10.4 mph - 0.00 in   Light Drizzle
10:05 AM 53.6 °F - 48.2 °F 82% 30.10 in 10.0 mi SE 10.4 mph - N/A   Mostly Cloudy
10:13 AM 55.4 °F - 48.2 °F 77% 30.10 in 10.0 mi SE 10.4 mph - N/A   Overcast
10:14 AM 55.4 °F - 48.2 °F 77% 30.09 in 10.0 mi SE 10.4 mph - N/A   Overcast
10:24 AM 53.6 °F - 48.2 °F 82% 30.10 in 10.0 mi SSE 9.2 mph - N/A   Overcast
10:58 AM 52.3 °F - 45.9 °F 79% 30.12 in 10.0 mi SSE 8.1 mph - 0.00 in   Overcast
11:58 AM 54.5 °F - 47.8 °F 78% 30.13 in 10.0 mi SSW 9.2 mph - N/A   Overcast
12:16 PM 53.6 °F - 48.2 °F 82% 30.11 in 10.0 mi SW 9.2 mph - N/A Rain Light Rain
12:25 PM 53.6 °F - 48.2 °F 82% 30.11 in 10.0 mi South 10.4 mph - N/A   Overcast
12:58 PM 55.6 °F - 47.1 °F 73% 30.13 in 10.0 mi South 6.9 mph - 0.00 in   Overcast
1:37 PM 57.2 °F - 48.2 °F 72% 30.11 in 10.0 mi Variable 4.6 mph - N/A   Overcast
1:58 PM 56.3 °F - 46.6 °F 70% 30.12 in 10.0 mi Variable 3.5 mph - N/A   Overcast
2:15 PM 57.2 °F - 46.4 °F 67% 30.11 in 10.0 mi ESE 1.2 mph - N/A   Overcast
2:58 PM 57.9 °F - 45.3 °F 63% 30.14 in 10.0 mi Variable 1.2 mph - N/A   Overcast
3:21 PM 57.2 °F - 48.2 °F 72% 30.12 in 10.0 mi SSE 10.4 mph - N/A Rain Light Rain
3:46 PM 55.4 °F - 50.0 °F 82% 30.12 in 10.0 mi South 9.2 mph - N/A   Overcast
3:58 PM 55.2 °F - 50.0 °F 83% 30.14 in 10.0 mi South 9.2 mph - 0.00 in   Mostly Cloudy
4:05 PM 55.4 °F - 50.0 °F 82% 30.11 in 10.0 mi South 10.4 mph - N/A Rain Light Rain
4:18 PM 55.4 °F - 50.0 °F 82% 30.12 in 10.0 mi South 8.1 mph - N/A   Overcast
4:58 PM 56.1 °F - 48.7 °F 76% 30.13 in 10.0 mi SW 8.1 mph - 0.00 in   Overcast
5:58 PM 59.0 °F - 46.9 °F 64% 30.12 in 10.0 mi SW 4.6 mph - N/A   Overcast
6:58 PM 59.5 °F - 46.6 °F 62% 30.11 in 10.0 mi SW 3.5 mph - N/A   Clear
7:58 PM 58.5 °F - 45.3 °F 62% 30.11 in 10.0 mi SW 4.6 mph - N/A   Clear
8:58 PM 54.3 °F - 49.3 °F 83% 30.12 in 10.0 mi SW 5.8 mph - N/A   Clear
9:58 PM 51.8 °F - 48.0 °F 87% 30.13 in 10.0 mi SW 4.6 mph - N/A   Clear
10:58 PM 49.6 °F - 46.9 °F 90% 30.14 in 10.0 mi WSW 5.8 mph - N/A   Partly Cloudy
11:58 PM 49.8 °F - 48.0 °F 94% 30.13 in 10.0 mi WSW 5.8 mph - N/A   Overcast